Coronas F rocket - Orbit

View from above orbital plane
View from above orbital plane
View from above satellite
View from above satellite

Ground track
Ground track

The orbit data is extracted from the following two-line orbital elements,

1 26874U 01032B   13137.39930466  .00008422  00000-0  17996-3 0  3791
2 26874 082.4777 035.0274 0020120 057.0797 303.2383 15.44429662660080
Epoch (UTC): 17 May 2013 09:34:59
Eccentricity: 0.0020120
inclination: 82.4777°
perigee height: 419 km
apogee height: 447 km
right ascension of ascending node: 35.0274°
argument of perigee: 57.0797°
revolutions per day: 15.44429662
mean anomaly at epoch: 303.2383°
orbit number at epoch: 66008

The dashed part of the orbit path shows where the satellite is in the earth's shadow,  

Developed and maintained by Chris Peat, Heavens-Above GmbH. Please read the updated FAQ before sending e-mail. Imprint. DLR